Probability
1 0 0 1 1 1 1 0 0 1 1 1 0 1 1 0 1 2 3 3 1 0 0 0 0 0 0 0 0 0 0 0 0 0 0 0 0 0 0 0 0 0 0
1 0 1 1 1 1 1 1 0 0 0 0 1 2 2 2 1 2 3 3 2 1 1 1 0 0 0 0 0 0 0 0 0 0 0 0 0 0 0 0 0 0 0
1 0 1 2 2 1 2 2 1 0 0 0 1 3 5 5 6 6 5 4 3 3 2 1 0 0 0 0 0 0 0 0 0 0 0 0 0 0 0 0 0 0 0
1 1 1 2 3 3 3 3 3 1 0 1 1 3 5 8 10 10 8 6 5 4 3 1 0 0 0 0 0 0 0 0 0 0 0 0 0 0 0 0 0 0 0
3 2 2 3 4 4 3 3 3 2 1 1 1 2 4 7 10 10 9 9 8 6 3 1 0 1 0 0 0 0 0 0 0 0 0 0 0 0 0 0 0 0 0
2 1 1 2 3 2 1 1 1 1 1 1 1 1 2 4 5 6 8 10 10 8 5 2 1 2 1 1 0 0 0 0 0 0 0 0 0 0 0 0 0 0 0
1 0 0 1 1 1 0 0 0 0 1 1 2 2 1 1 2 3 6 8 7 6 6 4 2 2 3 2 1 0 0 0 0 0 0 0 1 1 1 0 0 0 0
0 0 0 0 0 0 0 0 0 0 0 1 1 1 1 1 1 2 4 4 3 3 4 3 2 2 3 2 1 2 1 1 0 0 0 0 1 2 1 0 0 0 0
0 0 0 0 0 0 0 0 0 0 0 0 0 0 0 0 0 1 1 1 2 2 2 2 2 2 2 1 1 2 2 2 1 0 0 0 1 1 0 0 0 0 0
0 0 0 0 0 0 0 0 0 0 0 0 0 0 0 0 0 0 0 1 2 3 3 2 2 1 1 0 0 1 1 2 1 0 0 1 0 0 0 0 0 0 0
0 0 0 0 0 0 0 0 0 0 0 0 0 0 0 0 0 0 0 1 1 2 2 2 2 1 0 0 0 0 0 1 1 0 1 3 2 0 0 0 0 0 0
0 0 0 0 0 0 0 0 0 0 0 0 0 0 0 0 0 0 0 1 1 0 1 1 1 1 1 1 1 0 0 0 0 0 1 3 3 1 0 0 0 0 0
0 0 0 0 0 0 0 0 0 0 0 0 0 0 0 0 0 0 0 0 0 0 0 0 0 1 2 2 1 0 0 0 0 0 1 2 2 1 0 0 0 0 0
0 0 0 0 0 0 0 0 0 0 0 0 0 0 0 0 0 0 0 0 0 0 0 0 0 1 2 2 2 1 0 0 0 0 0 1 1 0 0 0 0 0 0
0 0 0 0 0 0 0 0 0 0 0 0 0 0 0 0 0 0 0 0 0 0 0 0 0 0 1 1 1 1 0 0 1 1 1 0 0 0 0 0 0 0 0
0 0 0 0 0 0 0 0 0 0 0 0 0 0 0 0 0 0 0 0 0 0 0 0 0 0 0 0 0 0 0 0 1 1 1 0 0 0 0 0 0 0 0
0 0 0 0 0 0 0 0 0 0 0 0 0 0 0 0 0 0 0 0 0 0 0 0 0 0 0 0 0 0 0 0 1 1 0 0 0 0 0 0 0 0 0
0 0 0 0 0 0 0 0 0 0 0 0 0 0 0 0 0 0 0 0 0 0 0 0 0 0 0 0 0 0 0 0 0 0 0 0 0 0 0 0 0 0 0
0 0 0 0 0 0 0 0 0 0 0 0 0 0 0 0 0 0 0 0 0 0 0 0 0 0 0 0 0 0 0 0 0 0 0 0 0 0 0 0 0 0 0
0 0 0 0 0 0 0 0 0 0 0 0 0 0 0 0 0 0 0 0 0 0 0 0 0 0 0 0 0 0 0 0 0 0 0 0 0 0 0 0 0 0 0
0 0 0 0 0 0 0 0 0 0 0 0 0 0 0 0 0 0 0 0 0 0 0 0 0 0 0 0 0 0 0 0 0 0 0 0 0 0 0 0 0 0 0
0 0 0 0 0 0 0 0 0 0 0 0 0 0 0 0 0 0 0 0 0 0 0 0 0 0 0 0 0 0 0 0 0 0 0 0 0 1 1 1 0 0 0
0 0 0 0 0 0 0 0 0 0 0 0 0 0 0 0 0 0 0 0 0 0 0 0 0 0 0 0 0 0 0 0 0 0 0 0 0 1 2 1 0 0 0
0 0 0 0 0 0 0 0 0 0 0 0 0 0 0 0 0 0 0 0 0 0 0 0 0 0 0 0 0 0 0 0 0 0 0 0 0 1 2 1 0 0 0
0 0 0 0 0 0 0 0 0 0 0 0 0 0 0 0 0 0 0 0 0 0 0 0 0 0 0 0 0 0 0 0 0 0 0 0 0 1 2 1 0 0 0
0 0 0 0 0 0 0 0 0 0 0 0 0 0 0 0 0 0 0 0 0 0 0 0 0 0 0 0 0 0 0 0 0 0 0 0 0 1 2 1 1 1 1
Wind_Speed
8 11 10 10 8 7 7 7 7 6 6 6 5 5 5 4 5 4 4 5 5 5 6 6 6 6 7 7 7 7 7 7 6 5 4 4 4 5 5 5 5 5 8
12 12 11 9 8 8 7 6 6 5 5 5 4 4 4 3 3 3 3 3 4 4 4 5 5 5 6 6 6 6 6 6 6 5 4 2 2 4 4 6 7 5 7
12 11 10 10 9 8 7 6 6 5 4 4 3 3 3 3 3 3 3 3 4 4 3 3 4 4 4 5 5 5 6 6 6 7 6 2 2 4 4 5 6 6 6
11 10 10 10 9 8 8 7 6 6 5 4 4 4 3 3 4 4 4 4 4 4 4 3 3 3 4 4 4 5 5 6 7 9 5 1 3 5 5 5 5 5 5
12 12 11 11 10 9 8 7 6 5 4 4 3 2 2 3 4 4 4 5 5 5 4 3 3 3 3 3 4 5 5 6 8 9 5 2 4 6 5 4 4 4 4
12 12 10 11 10 9 8 7 5 4 4 3 2 1 1 2 3 4 5 5 6 5 5 4 3 3 3 3 3 4 5 7 8 5 3 2 4 5 5 4 3 2 3
10 10 10 10 9 8 7 6 4 3 3 2 1 1 2 3 4 5 6 7 7 6 6 5 5 4 4 4 4 4 5 7 6 5 3 3 4 6 5 3 2 2 2
8 9 9 10 9 8 7 6 5 3 2 2 2 3 4 5 6 6 6 7 7 7 7 6 6 6 6 5 5 4 5 7 7 6 3 3 7 7 5 3 2 2 2
6 6 6 8 8 8 8 7 4 2 1 2 3 4 5 6 7 7 7 7 7 8 8 8 7 8 7 6 5 4 5 6 6 5 5 2 7 7 5 3 2 2 2
5 4 4 4 5 5 6 7 5 3 3 3 4 5 6 8 9 9 8 7 8 8 8 9 9 9 9 7 5 4 5 6 5 5 2 3 8 7 5 4 3 3 3
4 3 4 3 4 2 1 6 4 5 5 5 6 7 6 5 4 6 7 7 8 9 9 9 10 10 10 8 8 7 5 3 5 3 1 6 8 6 5 4 3 3 4
4 3 3 3 3 2 1 3 0 0 1 2 0 1 2 3 2 3 3 7 8 9 10 10 11 10 7 4 6 7 3 5 4 4 3 8 7 6 5 4 4 4 5
4 3 3 2 3 2 2 2 0 0 0 1 2 2 2 2 2 1 1 3 5 7 5 5 6 5 4 4 3 4 4 3 2 3 3 8 7 6 5 5 5 5 5
5 3 3 3 3 4 4 2 1 1 1 1 1 3 2 2 2 2 1 1 1 1 2 2 2 4 4 4 5 5 4 3 3 2 3 7 7 7 6 5 6 6 6
5 4 4 3 5 4 3 2 2 2 1 1 1 1 2 1 2 3 2 1 2 1 1 1 3 3 3 3 4 5 4 4 5 4 2 7 8 7 7 7 7 7 7
5 4 5 3 3 2 2 2 2 2 0 1 2 2 2 2 2 2 3 2 2 2 1 1 3 2 2 3 3 3 3 3 4 4 3 5 8 9 8 8 9 8 8
5 5 6 3 2 4 5 4 2 2 3 3 2 3 3 3 2 2 3 3 2 3 2 2 2 1 2 2 3 3 3 3 3 4 4 4 5 8 10 10 10 9 8
5 5 6 3 3 4 3 2 2 3 3 2 2 3 5 5 4 3 3 3 3 3 2 2 1 1 1 1 2 2 2 2 3 4 4 3 4 5 8 10 10 9 9
4 5 6 5 2 4 2 1 0 2 1 1 2 3 4 5 5 4 2 2 3 3 3 3 2 1 1 2 2 2 2 2 3 4 4 3 3 5 5 8 10 10 9
4 4 7 5 2 3 2 1 1 2 2 2 2 3 4 3 4 4 3 3 3 2 3 3 3 2 1 2 3 2 2 2 2 3 3 2 2 3 4 7 6 7 10
5 4 7 4 3 3 2 1 2 2 1 2 2 3 2 3 4 4 3 4 3 2 3 3 2 3 2 1 1 2 2 2 3 2 2 1 1 1 2 5 5 5 5
6 4 5 5 4 4 3 1 1 1 1 1 1 2 3 3 4 5 4 3 3 2 3 3 3 2 2 2 1 1 1 1 1 2 2 2 2 1 2 3 3 4 5
6 6 4 5 5 5 3 1 1 1 1 1 1 1 1 1 2 3 4 4 3 2 2 3 3 3 2 2 1 0 0 1 1 1 1 1 1 1 0 0 2 3 5
7 6 5 5 5 5 3 2 1 1 1 1 0 1 1 2 2 2 3 4 3 2 3 3 3 2 2 2 2 1 1 0 0 1 1 1 1 1 1 1 1 0 2
8 6 5 6 5 5 3 4 1 1 1 1 1 1 1 1 1 1 2 3 3 2 3 3 3 2 2 2 2 2 2 1 1 1 1 1 1 1 1 1 0 0 1
7 7 5 6 5 5 3 3 3 1 0 1 1 0 1 1 1 2 1 2 2 3 3 3 3 2 1 2 2 2 2 2 1 1 1 1 1 1 1 1 1 1 1
Wind_Direction
108 111 114 107 102 100 97 93 85 77 75 75 74 69 62 52 43 33 23 15 14 17 18 19 23 26 29 28 27 25 23 21 21 20 25 45 59 61 53 41 49 79 72
109 110 107 102 96 92 91 92 91 83 75 70 65 60 51 37 30 20 13 6 2 7 8 10 14 18 22 21 18 15 13 9 1 346 336 348 88 79 62 49 58 78 75
106 111 104 96 92 89 88 87 86 82 78 69 59 53 39 13 356 353 353 345 341 342 345 353 359 5 9 9 6 4 1 354 337 322 309 280 146 102 79 62 71 78 76
104 103 97 94 88 85 84 82 80 78 75 69 60 47 37 15 351 335 332 330 326 326 329 333 337 345 352 354 354 352 348 339 323 314 302 277 117 107 91 73 70 79 78
95 95 94 92 89 85 82 81 79 76 72 70 64 46 26 9 344 329 326 322 320 322 324 323 319 319 322 333 341 340 335 326 317 305 296 75 94 112 95 77 66 75 82
100 99 99 95 91 87 84 81 80 75 65 63 51 17 322 310 307 306 303 298 294 294 295 300 292 294 296 298 314 325 321 315 310 300 298 96 107 115 102 85 73 79 89
110 112 115 111 105 98 89 78 70 62 54 47 21 327 293 277 270 274 276 275 274 273 277 286 285 282 283 290 294 303 309 305 290 292 292 118 124 125 110 94 88 95 100
111 120 127 131 129 122 108 92 75 54 25 349 324 296 280 272 264 257 260 262 264 266 266 269 273 275 275 281 287 292 303 298 300 311 295 141 133 128 121 111 109 115 120
102 111 131 146 142 138 129 118 108 90 14 316 293 283 279 273 265 257 251 252 257 260 262 260 257 260 260 262 271 286 293 294 294 284 289 130 134 133 135 133 135 136 136
114 112 110 121 121 137 147 144 153 173 210 242 253 261 267 269 261 251 246 238 246 253 255 257 256 255 252 247 248 258 269 278 270 274 274 142 140 142 147 151 153 160 159
120 124 116 103 98 103 170 135 174 196 211 237 239 241 259 262 250 234 226 222 237 247 252 255 253 250 248 240 235 238 250 249 265 271 253 141 142 146 153 161 173 173 169
139 123 105 109 115 123 47 99 116 117 173 243 325 250 256 276 274 274 194 223 237 245 249 250 251 248 243 231 228 228 232 244 255 260 205 152 141 152 162 175 184 181 175
116 91 79 75 115 108 101 73 28 27 3 352 18 343 323 324 315 289 197 217 230 237 237 238 239 236 221 211 213 212 223 236 252 260 185 158 153 164 172 181 186 185 180
103 90 68 22 46 64 63 14 257 91 53 16 22 0 1 342 322 336 320 292 261 238 205 220 228 237 227 217 216 220 223 227 243 244 183 174 171 178 182 189 187 186 186
116 120 89 43 35 40 73 282 18 65 38 30 56 349 8 352 337 338 306 296 291 309 274 254 248 238 232 234 224 220 220 222 233 237 189 186 183 191 194 196 191 186 188
130 127 103 68 50 23 37 20 33 9 82 45 50 2 23 18 341 326 322 333 333 312 289 274 266 250 233 234 238 229 230 234 235 232 206 197 196 197 196 198 194 189 190
132 120 107 106 76 54 37 9 2 348 37 40 35 11 17 14 345 351 345 349 334 316 317 305 299 287 265 257 251 237 222 228 248 248 225 198 192 199 198 198 194 192 192
124 113 108 86 75 79 66 359 346 23 35 16 23 33 11 1 0 8 357 344 325 326 329 303 278 301 290 278 269 255 228 208 239 254 243 218 190 186 193 195 191 192 194
120 120 117 97 72 88 85 233 47 45 45 13 45 47 11 357 1 5 341 329 341 345 337 321 350 318 300 293 266 240 233 210 217 250 255 246 210 176 175 189 189 190 192
132 131 114 116 121 93 92 354 63 60 5 44 59 58 19 346 2 352 329 355 358 354 341 336 336 322 293 275 279 267 224 216 204 235 257 263 234 191 173 177 180 192 194
155 145 122 133 128 107 79 28 31 43 355 50 58 64 5 360 2 343 351 347 355 352 345 338 334 331 312 288 313 303 269 211 197 214 242 271 278 244 210 176 177 179 188
157 146 137 135 113 103 101 55 147 86 305 102 72 80 31 18 6 351 360 346 348 339 352 345 346 347 323 330 349 328 319 311 259 206 203 221 243 227 217 188 185 180 177
158 151 145 127 132 119 130 89 30 16 289 51 46 80 53 41 21 1 342 339 337 351 356 341 5 359 332 327 6 26 32 295 307 295 221 207 224 208 236 216 216 191 169
158 150 148 136 125 123 133 102 13 287 50 68 38 91 294 98 54 15 340 337 339 358 1 354 16 347 347 342 338 338 321 351 346 319 314 286 234 202 204 249 243 168 128
150 143 141 131 129 128 127 133 224 335 28 35 16 60 334 123 151 97 4 340 340 1 14 7 4 359 5 5 342 330 343 355 345 59 318 319 320 282 202 204 216 113 115
136 137 138 137 135 135 155 174 198 158 221 277 285 41 308 214 143 97 34 334 350 16 15 3 346 352 6 15 357 356 9 13 6 27 354 330 308 287 252 215 187 167 149